Location: Invercargill
(46.4000°S, 168.3500°E)
Time: 18:23:12
(UTC+13:00)

Cosmos 2322 - Pass Details

Date: 07 October 2021
Orbit: 840 x 855 km, 71.0° (Epoch: 17 October)

Event Time Altitude Azimuth Distance (km) Brightness Sun altitude
Rises 23:08:52 0° 214° (SW) 3,437 8.1 -28.7°
Reaches altitude 10° 23:11:30 10° 222° (SW) 2,496 7.1 -29.1°
Maximum altitude 23:16:38 35° 285° (WNW) 1,346 4.9 -29.6°
Enters shadow 23:17:22 34° 302° (WNW) 1,377 4.8 -29.7°
